Theta_e
300 300 299 299 299 299 299 299 299 300 301 304 306 306 306 306 304 303 303 307 312 310 306 305 306 311 310 313 315 316 313 314 313 311 312 313 311 314 316 316 318 320 321 321 330
300 299 299 299 299 299 299 301 304 305 306 305 305 306 307 307 307 310 314 310 309 311 310 305 312 313 309 311 314 313 312 316 311 314 312 313 314 315 317 316 317 318 319 326 340
299 299 300 300 300 303 306 307 308 307 306 305 305 306 307 307 304 316 315 309 307 308 310 307 312 314 312 311 311 312 316 316 315 316 316 315 316 317 316 314 317 318 319 326 350
299 300 301 302 306 307 306 306 305 304 304 304 307 307 307 307 302 312 307 308 307 307 307 313 311 312 310 309 310 309 311 315 316 317 317 316 318 317 317 318 319 319 320 320 335
299 300 301 304 306 306 306 305 305 304 305 307 307 307 308 308 309 309 309 309 308 308 308 309 310 312 311 310 312 307 308 311 314 316 316 317 316 317 317 319 320 320 320 321 321
299 300 301 304 305 304 304 305 305 306 307 306 307 308 308 307 310 309 309 309 308 308 308 311 315 310 312 311 310 312 311 311 312 310 312 313 314 315 317 317 317 318 318 320 321
300 300 302 303 305 304 306 306 306 307 307 307 308 308 309 309 310 310 310 311 310 308 308 308 314 314 310 310 312 312 312 313 311 311 310 313 313 313 314 315 315 316 317 319 320
300 300 302 303 304 305 307 307 307 308 308 307 308 309 309 309 310 311 311 311 311 310 309 308 308 315 314 313 312 312 314 316 314 311 312 314 315 315 317 316 316 317 316 318 320
300 300 302 303 304 305 307 308 308 307 307 308 308 308 309 309 309 313 313 312 311 311 310 307 308 312 313 311 311 311 314 316 316 313 313 313 314 314 317 317 316 317 318 320 321
298 301 301 303 304 306 308 309 308 307 308 308 308 307 309 309 309 313 313 313 312 311 309 307 309 310 310 315 318 315 315 314 318 314 312 312 314 313 315 315 316 318 319 320 321
299 299 301 303 304 307 309 309 308 308 308 309 308 307 309 309 310 310 312 312 312 307 306 306 304 305 306 308 312 312 314 312 311 311 311 313 313 313 313 314 313 316 317 319 320
302 299 300 301 304 307 308 307 307 307 306 309 308 308 309 309 308 309 311 309 311 310 308 304 305 304 306 306 308 310 310 309 309 310 311 310 310 310 311 312 314 315 316 318 319
303 299 301 301 304 306 308 307 307 307 306 308 309 308 308 309 309 309 309 309 311 311 311 308 308 306 306 307 308 308 308 309 309 310 310 309 311 313 313 314 315 317 317 318 318
304 299 303 302 305 308 308 307 307 307 304 308 308 308 308 309 309 309 309 309 312 313 311 309 308 308 309 308 308 308 308 310 311 311 310 311 314 311 313 313 313 314 317 317 317
304 300 304 305 307 307 306 306 308 308 306 307 308 308 309 308 309 309 309 309 310 312 313 314 312 311 305 306 305 307 310 310 311 313 313 313 311 309 311 313 312 311 314 317 317
305 301 304 306 307 306 307 306 308 303 306 307 307 309 309 309 309 309 308 309 312 312 312 312 313 311 311 309 305 306 308 311 311 311 313 311 311 310 311 312 312 312 314 316 317
306 303 306 306 306 306 306 307 305 303 306 308 308 309 309 309 308 309 309 310 314 313 310 310 312 313 312 313 311 311 311 307 314 315 313 311 313 312 310 310 311 312 313 314 316
306 304 306 306 307 306 307 302 305 307 308 308 309 309 309 308 309 309 309 309 311 312 312 311 310 315 314 314 313 312 310 308 310 314 310 311 313 312 311 312 312 312 313 314 315
304 304 306 307 307 306 307 302 304 307 307 309 309 308 309 308 308 309 309 308 312 312 310 311 311 310 309 309 312 314 313 310 311 313 311 312 312 311 311 311 311 311 313 314 314
301 303 307 306 305 307 304 306 306 306 308 309 308 308 309 308 309 311 309 309 311 310 309 311 312 309 311 311 313 314 315 315 316 314 314 313 314 312 310 310 311 310 309 314 315
300 303 307 302 303 303 298 300 304 306 307 308 307 307 309 310 310 311 309 309 310 310 309 309 311 309 310 310 313 315 315 317 313 309 308 314 315 312 311 309 309 308 309 313 314
299 297 304 302 301 298 299 301 303 306 305 305 305 307 308 311 311 309 309 310 310 309 310 309 312 310 309 309 310 313 315 316 318 316 312 311 312 310 313 311 308 312 315 315 315
300 301 303 301 298 298 300 301 302 305 305 305 305 307 309 310 309 308 309 309 309 309 311 310 309 309 305 309 313 310 312 313 314 314 318 317 314 311 311 310 313 313 315 317 322
300 299 301 300 301 300 301 301 302 303 304 303 303 305 308 308 306 310 309 309 310 310 310 311 311 311 312 306 308 309 311 313 316 316 312 314 314 314 313 315 314 314 316 318 320
298 298 300 296 297 297 298 301 302 302 304 303 303 307 307 306 306 309 310 310 309 309 311 311 312 311 311 311 312 312 311 311 313 313 314 312 312 314 313 313 313 316 318 319 321
297 299 298 298 299 299 299 300 301 302 303 303 304 305 304 305 306 306 308 307 310 310 310 309 311 310 311 310 311 312 311 310 310 311 312 312 314 312 313 314 315 318 319 321 324
296 297 298 298 298 298 298 301 301 302 302 303 304 303 304 305 306 305 305 305 306 309 309 309 310 310 312 312 312 313 313 313 313 313 312 313 312 314 315 315 315 317 318 323 329
Wind_Speed
27 26 26 27 27 27 25 20 17 18 22 25 26 26 23 22 23 23 21 9 9 15 18 15 16 13 22 18 14 8 3 9 10 10 8 1 5 4 0 9 8 8 8 18 18
26 26 25 24 22 22 22 21 21 21 20 21 22 23 25 26 24 7 7 6 11 11 9 12 10 11 12 13 12 7 5 12 6 12 5 4 1 6 3 3 7 16 11 16 11
27 25 22 20 19 17 18 18 19 21 24 27 28 23 20 19 9 4 4 17 20 16 13 7 9 14 7 8 14 8 16 13 3 18 10 8 7 9 5 7 11 13 13 10 11
29 26 23 18 15 14 14 15 20 23 25 26 24 22 20 10 4 4 15 18 16 14 13 9 13 5 5 7 8 6 13 23 3 26 11 4 5 8 18 18 21 18 17 15 10
32 27 26 16 15 16 17 18 18 15 18 18 15 16 15 8 7 7 9 14 15 15 12 11 13 9 4 4 9 7 3 8 28 31 26 20 13 12 25 19 19 20 23 27 26
34 28 26 17 16 18 19 20 15 8 10 14 15 14 9 4 15 12 11 8 13 11 4 7 9 17 7 5 6 4 5 16 25 15 7 16 20 20 37 24 29 24 28 29 25
36 27 25 18 16 19 19 15 9 8 11 15 13 11 5 11 27 21 18 16 14 7 5 8 7 14 4 5 14 19 16 16 8 4 7 12 17 26 27 30 27 26 18 19 21
37 29 23 18 16 18 18 15 9 7 12 17 11 13 4 21 24 20 16 14 13 14 13 7 7 8 14 20 11 8 4 4 4 11 7 15 27 8 20 22 28 29 26 26 23
36 33 23 17 16 17 18 17 14 8 13 15 10 10 1 22 27 16 19 18 13 15 10 7 7 10 6 3 5 3 5 4 6 6 6 14 12 5 18 15 22 27 27 21 20
37 34 28 19 16 16 19 17 15 6 15 7 7 6 7 23 25 11 19 21 14 14 7 6 8 5 3 6 11 4 5 4 3 5 6 9 21 8 22 5 13 18 21 22 22
39 36 32 21 17 11 17 13 14 3 17 8 16 9 12 26 13 16 15 20 9 5 4 7 3 7 16 15 13 11 15 12 7 9 6 7 7 8 10 20 10 21 22 21 22
40 36 34 22 18 6 10 10 9 9 11 17 11 12 11 26 8 15 15 11 8 7 4 3 12 11 4 8 10 11 11 13 6 10 5 8 14 13 10 11 10 17 23 26 23
40 39 35 20 13 5 8 13 19 11 4 12 8 8 8 23 11 9 18 15 6 6 7 11 9 6 7 7 11 8 9 5 9 7 11 7 18 14 12 10 15 21 21 22 26
40 40 33 14 5 10 7 18 25 6 3 6 2 2 14 24 4 29 13 19 4 6 6 7 5 8 11 10 10 13 9 11 7 2 5 1 6 5 4 9 9 17 23 23 20
40 38 25 9 6 10 16 23 12 5 4 5 2 4 30 7 23 5 22 6 10 7 2 6 5 6 7 8 8 10 8 8 7 5 3 4 3 7 7 8 9 8 19 21 14
39 34 15 7 11 14 18 23 4 5 5 6 5 12 13 18 7 15 14 9 7 4 4 11 8 5 9 7 11 5 2 4 2 4 7 6 6 5 8 7 3 5 3 4 7
37 26 9 6 14 16 19 10 4 4 5 5 6 9 12 8 14 8 9 4 3 5 5 7 3 3 5 4 1 2 5 1 3 4 8 11 10 17 8 7 4 4 3 6 7
37 14 7 12 14 19 13 4 2 2 2 6 7 16 6 9 3 7 7 3 2 1 3 3 6 4 2 3 6 6 7 5 6 4 4 12 9 14 20 21 30 27 19 17 13
37 7 5 12 18 16 2 4 4 0 3 6 12 4 4 8 5 6 4 2 2 1 1 4 5 8 19 13 4 2 6 7 2 3 2 4 6 15 16 18 15 9 9 15 22
38 12 5 19 14 7 4 3 2 3 6 5 4 3 5 12 6 5 4 3 3 5 5 3 9 5 5 5 6 14 5 3 3 3 6 5 6 12 7 15 18 15 9 14 12
30 7 10 20 9 9 3 4 5 10 12 4 4 6 5 6 6 3 6 7 2 2 1 5 6 5 5 3 3 3 3 3 2 4 5 2 7 12 9 6 8 8 14 25 27
18 3 15 17 8 4 2 6 11 6 15 6 4 4 3 4 6 5 6 5 10 2 6 4 5 6 10 12 5 3 4 7 5 3 4 3 9 4 3 5 7 6 10 15 23
17 7 11 9 3 3 6 4 4 6 9 5 5 4 5 4 7 9 8 7 11 7 4 3 3 5 9 3 3 3 3 5 3 2 6 4 5 4 4 5 7 7 11 10 12
9 4 6 9 5 1 6 3 7 12 12 11 10 12 5 9 9 7 11 8 7 11 18 14 5 7 9 9 2 10 12 9 7 4 3 10 15 11 9 5 4 6 10 13 15
9 2 3 4 4 6 4 4 11 10 4 11 5 7 8 7 19 5 6 8 12 25 8 3 5 8 14 18 19 21 23 20 19 17 12 22 19 12 13 9 8 12 13 16 16
7 6 6 8 11 6 3 2 11 9 5 10 7 16 19 13 18 26 15 19 7 4 1 2 4 4 15 18 18 19 22 23 24 25 20 22 26 20 21 20 12 16 15 19 17
9 5 4 6 5 3 3 7 13 15 12 10 13 19 21 18 24 38 39 28 15 5 2 3 3 3 7 5 12 11 13 19 19 15 14 17 25 2 7 14 16 19 20 19 17
Wind_Direction
356 350 345 342 340 339 339 339 330 327 332 339 343 342 343 334 323 313 314 307 316 266 257 255 254 248 202 205 197 192 206 231 223 193 230 234 187 202 85 224 193 214 262 299 289
354 348 346 344 343 341 343 348 347 345 344 338 337 337 336 331 332 357 102 74 23 11 283 255 232 207 185 204 201 177 209 228 182 228 211 214 235 276 297 256 271 276 268 335 232
356 354 353 351 353 359 2 359 352 344 336 335 335 338 341 336 348 75 49 343 331 334 338 259 203 194 226 198 196 199 235 239 229 241 239 258 251 263 200 245 231 255 277 348 228
2 1 1 1 9 13 9 359 346 334 328 332 341 348 355 22 55 14 351 339 347 318 315 280 226 226 210 213 221 264 239 234 213 239 256 239 236 258 227 238 258 266 260 275 266
2 2 1 4 5 359 354 348 339 329 329 344 357 357 18 21 30 12 353 348 339 331 289 289 238 217 216 234 229 245 299 275 239 249 257 268 237 255 261 251 257 259 266 268 275
2 0 0 359 357 358 352 344 348 357 356 350 345 345 13 3 4 5 340 346 359 338 253 276 233 242 294 240 199 253 237 260 267 258 242 241 265 265 261 257 266 263 270 270 267
3 360 359 357 352 355 353 351 356 350 353 347 345 339 0 4 2 354 344 345 346 347 312 317 255 232 339 261 300 272 276 283 244 258 243 243 279 240 256 253 269 263 263 266 264
2 359 359 354 352 354 352 350 338 342 347 339 335 340 274 2 352 358 354 350 334 323 299 276 253 226 241 277 309 332 257 219 236 189 226 170 255 306 245 233 242 249 256 264 270
359 357 352 349 341 344 344 336 334 308 332 333 328 336 313 352 351 14 12 355 335 321 306 271 212 203 185 195 326 258 270 261 296 199 190 196 251 268 252 238 233 237 232 242 252
355 352 348 343 337 343 345 343 338 312 335 330 336 340 328 335 341 359 2 354 339 316 302 214 221 177 181 186 242 235 268 322 268 9 11 265 251 290 297 271 243 234 230 224 232
353 348 346 337 338 345 355 9 9 339 326 281 296 272 318 342 355 2 348 343 343 277 218 239 205 218 220 205 225 249 269 274 281 289 325 267 275 280 277 287 228 250 249 246 233
351 346 341 339 334 352 4 35 13 308 301 291 282 273 333 347 300 9 349 358 311 257 247 261 231 232 251 189 214 204 236 267 256 260 240 283 289 284 266 268 257 258 247 245 240
351 345 342 341 335 330 345 354 339 319 272 288 262 272 326 342 307 302 334 340 268 266 262 228 236 210 218 212 219 209 210 218 247 251 275 279 278 270 269 236 246 256 259 249 240
351 347 345 347 6 348 1 337 327 284 38 275 275 258 339 335 300 322 312 331 315 282 285 249 257 224 223 237 214 240 198 223 193 163 251 110 285 278 246 234 211 221 236 243 232
350 347 349 11 12 1 340 338 334 153 337 332 279 336 336 327 311 332 328 303 263 265 278 256 291 291 219 225 196 227 187 193 202 180 157 266 308 273 221 225 232 203 227 236 245
351 347 350 17 16 345 337 337 146 47 255 332 346 333 333 330 301 295 316 301 288 270 222 252 259 249 241 235 211 226 192 32 55 142 232 200 202 244 227 221 267 119 217 263 268
350 350 7 354 341 327 331 335 30 137 344 341 324 318 314 303 320 320 321 338 341 338 0 307 255 261 209 259 308 122 128 285 241 224 241 177 211 240 266 242 259 122 114 318 304
348 349 39 8 346 335 333 51 131 10 305 328 319 307 292 1 324 309 292 312 147 353 291 324 335 6 100 243 210 207 168 168 216 201 251 180 208 238 224 250 258 261 259 273 282
346 356 330 347 332 332 8 48 232 49 314 306 312 298 270 343 331 326 292 263 276 170 8 314 260 315 301 276 259 195 210 212 246 206 13 236 278 280 235 239 240 235 223 255 263
346 355 4 343 344 342 72 248 278 294 350 323 287 285 306 325 325 332 295 262 20 74 43 293 285 262 290 306 240 215 138 133 172 204 222 234 235 233 178 220 234 241 183 212 260
351 356 349 346 354 36 103 270 302 317 346 313 277 281 297 308 274 312 271 294 72 319 305 234 232 279 349 260 220 168 224 193 171 174 198 162 237 231 236 226 226 245 223 217 224
350 347 343 357 45 28 16 316 313 305 347 285 312 272 280 295 276 292 245 209 205 189 290 263 273 276 243 246 237 263 279 196 239 224 225 200 259 10 141 251 219 223 215 223 227
341 304 350 14 65 343 295 282 276 327 332 328 304 259 298 302 315 270 259 281 283 298 246 183 252 300 321 344 94 198 224 209 231 270 208 222 262 327 317 252 224 203 238 262 255
350 350 345 52 114 177 330 312 332 319 296 347 285 280 281 301 288 276 271 291 281 235 242 243 214 210 252 237 204 275 269 261 233 221 264 246 276 269 284 233 223 244 257 271 275
11 26 0 318 341 326 289 324 330 341 295 314 296 249 313 299 303 254 261 275 286 279 271 201 273 241 253 265 263 260 267 262 245 242 238 265 260 276 240 257 246 255 260 267 270
12 1 344 297 293 313 312 266 332 326 300 304 269 300 307 289 280 290 301 302 271 290 294 277 266 289 274 259 264 259 260 256 249 248 254 262 273 252 260 264 246 246 260 259 248
10 339 312 274 303 339 275 343 321 325 298 250 300 304 303 291 306 297 288 281 252 270 234 248 258 277 269 268 285 264 263 244 253 245 234 236 244 224 244 233 231 224 232 248 235